Terminal Aerodrome Forecast
Issued by NWS

Current Version | Previous Version | Graphics & Text | Print | Product List | Glossary On
Versions: 1 2 3 4 5 6 7 8 9 10 11 12 13 14 15 16 17 18 19 20 21 22 23 24 25
000
FTUS41 KPBZ 141442 AAA
TAFMGW
TAF AMD
KMGW 141442Z 1415/1512 02004KT 3SM BR OVC017
     FM141600 VRB03KT 2SM -RA BR OVC008
     FM141900 VRB03KT 2SM -RA BR OVC005
     FM150000 32005KT 3SM BR OVC008
     FM150600 33005KT P6SM OVC015
     FM151000 34005KT P6SM BKN035=

USA.gov is the U.S. government's official web portal to all federal, state and local government web resources and services.